Time,TemperatureF,DewpointF,PressureIn,WindDirection,WindDirectionDegrees,WindSpeedMPH,WindSpeedGustMPH,Humidity,HourlyPrecipIn,Conditions,Clouds,dailyrainin,SoftwareType,DateUTC
2013-05-01 00:02:00,67.0,51.0,29.78,South,169,0.0,0.0,57,0.00,,,0.00,,2013-05-01 05:02:00,
2013-05-01 00:11:00,67.0,51.0,29.78,South,169,0.0,0.0,57,0.00,,,0.00,,2013-05-01 05:11:00,
2013-05-01 00:21:00,67.0,51.0,29.78,South,169,0.0,0.0,57,0.00,,,0.00,,2013-05-01 05:21:00,
2013-05-01 00:32:00,68.0,52.0,29.78,South,169,0.0,0.0,56,0.00,,,0.00,,2013-05-01 05:32:00,
2013-05-01 00:42:00,68.0,52.0,29.78,South,169,0.0,0.0,56,0.00,,,0.00,,2013-05-01 05:42:00,
2013-05-01 00:52:00,68.0,52.0,29.78,South,169,0.0,0.0,56,0.00,,,0.00,,2013-05-01 05:52:00,
2013-05-01 01:02:00,66.0,52.0,29.78,South,169,0.0,0.0,60,0.00,,,0.00,,2013-05-01 06:02:00,
2013-05-01 01:12:00,66.0,52.0,29.78,South,169,0.0,0.0,60,0.00,,,0.00,,2013-05-01 06:12:00,
2013-05-01 01:22:00,65.0,52.0,29.79,South,169,0.0,0.0,62,0.00,,,0.00,,2013-05-01 06:22:00,
2013-05-01 01:32:00,68.0,50.0,29.79,South,178,6.0,6.0,53,0.00,,,0.00,,2013-05-01 06:32:00,
2013-05-01 01:42:00,68.0,50.0,29.79,South,178,6.0,6.0,53,0.00,,,0.00,,2013-05-01 06:42:00,
2013-05-01 01:51:00,69.0,51.0,29.80,South,178,1.0,1.0,53,0.00,,,0.00,,2013-05-01 06:51:00,
2013-05-01 02:01:00,68.0,50.0,29.80,SSE,168,3.0,3.0,53,0.00,,,0.00,,2013-05-01 07:01:00,
2013-05-01 02:11:00,68.0,50.0,29.80,SSE,168,3.0,3.0,53,0.00,,,0.00,,2013-05-01 07:11:00,
2013-05-01 02:21:00,68.0,50.0,29.81,South,169,0.0,0.0,53,0.00,,,0.00,,2013-05-01 07:21:00,
2013-05-01 02:32:00,66.0,50.0,29.82,South,169,0.0,0.0,56,0.00,,,0.00,,2013-05-01 07:32:00,
2013-05-01 02:42:00,66.0,50.0,29.82,South,169,0.0,0.0,56,0.00,,,0.00,,2013-05-01 07:42:00,
2013-05-01 02:52:00,65.0,50.0,29.82,South,169,0.0,0.0,59,0.00,,,0.00,,2013-05-01 07:52:00,
2013-05-01 03:02:00,63.0,50.0,29.82,South,169,0.0,0.0,62,0.00,,,0.00,,2013-05-01 08:02:00,
2013-05-01 03:11:00,63.0,50.0,29.82,South,169,0.0,0.0,62,0.00,,,0.00,,2013-05-01 08:11:00,
2013-05-01 03:21:00,62.0,51.0,29.83,South,169,0.0,0.0,66,0.00,,,0.00,,2013-05-01 08:21:00,
2013-05-01 03:32:00,61.0,51.0,29.84,South,169,0.0,0.0,69,0.00,,,0.00,,2013-05-01 08:32:00,
2013-05-01 03:42:00,61.0,51.0,29.84,South,169,0.0,0.0,69,0.00,,,0.00,,2013-05-01 08:42:00,
2013-05-01 03:53:00,60.0,51.0,29.84,South,169,0.0,0.0,71,0.00,,,0.00,,2013-05-01 08:53:00,
2013-05-01 04:01:00,59.0,50.0,29.85,South,169,0.0,0.0,73,0.00,,,0.00,,2013-05-01 09:01:00,
2013-05-01 04:12:00,59.0,50.0,29.85,South,169,0.0,0.0,73,0.00,,,0.00,,2013-05-01 09:12:00,
2013-05-01 04:21:00,58.0,50.0,29.85,South,169,0.0,0.0,75,0.00,,,0.00,,2013-05-01 09:21:00,
2013-05-01 04:33:00,58.0,51.0,29.86,South,169,0.0,0.0,77,0.00,,,0.00,,2013-05-01 09:33:00,
2013-05-01 04:42:00,58.0,51.0,29.86,South,169,0.0,0.0,77,0.00,,,0.00,,2013-05-01 09:42:00,
2013-05-01 04:52:00,58.0,51.0,29.86,South,169,0.0,0.0,78,0.00,,,0.00,,2013-05-01 09:52:00,
2013-05-01 05:02:00,58.0,52.0,29.87,South,169,0.0,0.0,80,0.00,,,0.00,,2013-05-01 10:02:00,
2013-05-01 05:12:00,58.0,52.0,29.87,South,169,0.0,0.0,80,0.00,,,0.00,,2013-05-01 10:12:00,
2013-05-01 05:22:00,58.0,51.0,29.87,South,169,0.0,0.0,78,0.00,,,0.00,,2013-05-01 10:22:00,
2013-05-01 05:33:00,58.0,51.0,29.88,South,169,0.0,0.0,78,0.00,,,0.00,,2013-05-01 10:33:00,
2013-05-01 05:42:00,58.0,51.0,29.88,South,169,0.0,0.0,78,0.00,,,0.00,,2013-05-01 10:42:00,
2013-05-01 05:52:00,57.0,50.0,29.89,South,169,0.0,0.0,78,0.00,,,0.00,,2013-05-01 10:52:00,
2013-05-01 06:02:00,59.0,51.0,29.90,NNE,18,2.0,2.0,75,0.00,,,0.00,,2013-05-01 11:02:00,
2013-05-01 06:11:00,59.0,51.0,29.90,NNE,18,2.0,2.0,75,0.00,,,0.00,,2013-05-01 11:11:00,
2013-05-01 06:22:00,60.0,51.0,29.90,NNE,18,3.0,3.0,73,0.00,,,0.00,,2013-05-01 11:22:00,
2013-05-01 06:32:00,60.0,51.0,29.91,NW,322,0.0,0.0,72,0.00,,,0.00,,2013-05-01 11:32:00,
2013-05-01 06:42:00,60.0,51.0,29.91,NW,322,0.0,0.0,72,0.00,,,0.00,,2013-05-01 11:42:00,
2013-05-01 06:51:00,60.0,52.0,29.92,NW,323,0.0,0.0,74,0.00,,,0.00,,2013-05-01 11:51:00,
2013-05-01 07:01:00,58.0,51.0,29.93,NW,321,0.0,0.0,77,0.00,,,0.00,,2013-05-01 12:01:00,
2013-05-01 07:11:00,58.0,50.0,29.94,North,350,6.0,6.0,75,0.00,,,0.00,,2013-05-01 12:11:00,
2013-05-01 07:21:00,58.0,50.0,29.94,North,350,6.0,6.0,75,0.00,,,0.00,,2013-05-01 12:21:00,
2013-05-01 07:31:00,58.0,50.0,29.95,NNW,338,0.0,0.0,75,0.00,,,0.00,,2013-05-01 12:31:00,
2013-05-01 07:41:00,58.0,50.0,29.95,NNW,338,0.0,0.0,75,0.00,,,0.00,,2013-05-01 12:41:00,
2013-05-01 07:51:00,57.0,49.0,29.96,NNW,346,0.0,0.0,74,0.00,,,0.00,,2013-05-01 12:51:00,
2013-05-01 08:01:00,58.0,49.0,29.96,NNW,348,4.0,4.0,73,0.00,,,0.00,,2013-05-01 13:01:00,
2013-05-01 08:11:00,58.0,49.0,29.96,NNW,348,4.0,4.0,73,0.00,,,0.00,,2013-05-01 13:11:00,
2013-05-01 08:21:00,58.0,49.0,29.97,North,350,0.0,0.0,73,0.00,,,0.00,,2013-05-01 13:21:00,
2013-05-01 08:32:00,58.0,49.0,29.98,North,349,0.0,0.0,72,0.00,,,0.00,,2013-05-01 13:32:00,
2013-05-01 08:42:00,58.0,49.0,29.98,North,349,0.0,0.0,72,0.00,,,0.00,,2013-05-01 13:42:00,
2013-05-01 08:52:00,58.0,49.0,29.98,North,349,0.0,0.0,72,0.00,,,0.00,,2013-05-01 13:52:00,
2013-05-01 09:02:00,58.0,49.0,29.98,North,349,0.0,0.0,72,0.00,,,0.00,,2013-05-01 14:02:00,